CDT,Max TemperatureF,Mean TemperatureF,Min TemperatureF,Max Dew PointF,MeanDew PointF,Min DewpointF,Max Humidity, Mean Humidity, Min Humidity, Max Sea Level PressureIn, Mean Sea Level PressureIn, Min Sea Level PressureIn, Max VisibilityMiles, Mean VisibilityMiles, Min VisibilityMiles, Max Wind SpeedMPH, Mean Wind SpeedMPH, Max Gust SpeedMPH,PrecipitationIn, CloudCover, Events, WindDirDegrees
2012-10-1,70,55,41,49,43,39,95,66,33,29.94,29.89,29.83,10,10,2,5,2,,0.00,0,,21
2012-10-2,76,58,41,46,42,39,96,60,27,29.92,29.88,29.84,10,10,5,10,3,,0.00,0,,23
2012-10-3,75,57,39,52,45,39,97,71,28,30.01,29.95,29.92,10,9,2,16,2,,0.00,1,,224
2012-10-4,66,57,47,54,45,33,95,71,48,30.17,30.06,29.99,10,10,7,17,7,26,0.00,3,Thunderstorm,228
2012-10-5,53,44,37,34,28,21,79,52,34,30.21,30.16,30.11,10,10,10,16,8,22,0.00,1,,289
2012-10-6,47,40,34,30,28,24,75,60,50,30.22,30.18,30.12,10,10,10,14,8,18,0.00,5,,296
2012-10-7,52,42,31,31,24,17,75,52,25,30.22,30.17,30.11,10,10,10,9,5,10,0.00,4,,266
2012-10-8,62,46,31,33,29,22,81,53,30,30.11,30.02,29.92,10,10,10,22,10,26,0.00,1,,173
2012-10-9,63,54,43,43,38,33,91,62,39,29.96,29.89,29.81,10,10,7,22,10,30,0.05,3,Rain,215
2012-10-10,54,44,33,37,30,25,82,63,34,30.17,30.10,29.96,10,10,10,15,8,22,0.02,1,,271
2012-10-11,68,50,32,37,33,28,85,54,29,30.29,30.11,30.03,10,10,10,20,10,25,0.00,2,Rain,231
2012-10-12,57,44,31,32,24,16,70,44,22,30.46,30.36,30.21,10,10,10,18,8,23,0.00,1,,78
2012-10-13,65,54,43,64,52,36,96,90,70,30.18,29.92,29.72,10,7,2,14,8,18,0.41,7,Rain-Thunderstorm,162
2012-10-14,66,56,46,62,55,42,97,89,78,29.85,29.63,29.43,10,8,0,21,8,31,0.47,7,Rain,236
2012-10-15,61,50,40,44,40,37,96,71,42,29.98,29.92,29.85,10,10,10,10,5,,0.00,0,,291
2012-10-16,73,57,41,54,47,40,97,69,45,29.92,29.65,29.46,10,10,3,23,6,31,0.00,0,,160
2012-10-17,67,58,50,57,50,43,96,78,57,29.49,29.41,29.33,10,9,3,17,9,24,0.38,4,Rain-Thunderstorm,187
2012-10-18,49,46,44,43,41,38,94,82,68,29.41,29.37,29.34,10,9,4,20,13,28,0.19,8,Rain,224
2012-10-19,54,48,39,44,42,37,97,83,58,29.69,29.53,29.38,10,8,2,14,5,18,0.00,6,Rain,303
2012-10-20,56,44,31,43,38,32,100,86,54,29.93,29.82,29.70,10,6,0,8,2,,0.00,0,Fog,228
2012-10-21,70,53,36,52,45,36,99,78,48,29.97,29.93,29.89,10,8,1,14,4,17,0.00,0,,114
2012-10-22,64,58,53,64,59,51,97,94,84,29.93,29.89,29.85,10,4,0,10,3,,0.72,7,Rain-Thunderstorm,75
2012-10-23,73,67,61,65,62,60,95,86,70,29.89,29.86,29.81,10,7,2,13,6,16,0.01,8,Rain,148
2012-10-24,82,71,61,66,63,60,93,79,57,29.89,29.83,29.74,10,10,10,18,9,26,0.00,4,,167
2012-10-25,71,56,41,62,52,31,91,79,66,30.15,29.80,29.61,10,9,2,23,15,33,0.23,6,Rain-Thunderstorm,224
2012-10-26,49,41,34,32,28,25,80,59,40,30.37,30.31,30.16,10,10,10,18,11,22,0.00,1,,312
2012-10-27,46,36,27,29,25,23,91,66,41,30.38,30.33,30.28,10,10,5,12,5,10,0.00,0,,353
2012-10-28,51,39,28,31,26,21,89,63,40,30.34,30.31,30.28,10,10,10,14,5,17,0.00,1,,12
2012-10-29,53,39,26,30,24,19,96,61,26,30.36,30.29,30.16,10,10,7,12,4,16,0.00,0,,356
2012-10-30,52,44,36,27,23,18,67,48,28,30.15,29.98,29.89,10,10,10,20,10,28,0.00,0,,336
2012-10-31,51,40,29,28,22,14,77,54,24,29.93,29.91,29.88,10,10,10,14,8,20,0.00,0,,316